Location: Stara Lesna
(49.1528°N, 20.2911°E)
Time: 18:25:30
(UTC+02:00)

Cosmos 1544 - Pass Details

Date: 13 July 2020
Orbit: 473 x 490 km, 82.5° (Epoch: 10 August)

Event Time Altitude Azimuth Distance (km) Brightness Sun altitude
Exits shadow 03:50:42 - 174° (S) 2,494 6.3 -7.9°
Reaches altitude 10° 03:52:47 10° 168° (SSE) 1,638 5.4 -7.7°
Maximum altitude 03:56:12 45° 94° (E) 659 4.1 -7.3°
Drops below altitude 10° 03:59:40 10° 21° (NNE) 1,653 7.0 -6.9°
Sets 04:01:49 0° 16° (NNE) 2,537 7.9 -6.6°
